Flag for Lebanon Weather past 2 weeks in Sidon, Lebanon

Now
79 °F

Passing clouds.


Feels Like: 80 °F
Forecast: 72 / 79 °F
Wind: 5 mph from West

Location: Beirut Airport

Current Time: Oct 26, 2014 at 11:45:29 AM

Latest Report: Oct 26, 2014 at 11:00 AM


Visibility: N/A

Pressure: 30.04 "Hg

Humidity: 51%

Dew point: 59 °F

Location of SidonLocation

Historic Weather in Sidon — Graph

°F

Sidon temperature yesterday

Maximum temperature yesterday: 82 °F (at 2:00 PM)
Minimum temperature yesterday: 70 °F (at 3:00 AM)
Average temperature yesterday: 75 °F

Past Weeks' High & Low Weather Summary

 TemperatureHumidityPressure
High82 °F (Oct 25, 2:00 PM)94% (Oct 19, 1:00 PM)30.12 "Hg (Oct 19, 1:00 PM)
Low64 °F (Oct 21, 12:00 AM)33% (Oct 20, 2:00 PM)29.77 "Hg (Oct 19, 3:00 PM)
Average74 °F60%30.00 "Hg
* Reported Oct 11 11:00 AM — Oct 26 10:00 AM, Sidon, Weather by CustomWeather, © 2014

Note: Actual official high and low records may vary slightly from our data, if they occured in-between our weather recording intervals... More about our weather records

Advertising

Sidon weather history for previous 24 hours

 ConditionsComfort  
Time TempWeatherWind HumidityBarometerVisibility
10:00 AM
Oct 26
79 °FSunny.6 mph45%30.04 "Hg10 mi
9:00 AM77 °FSunny.8 mph42%30.04 "Hg10 mi
8:00 AM75 °FSunny.1 mph44%30.04 "Hg10 mi
7:00 AM72 °FSunny.3 mph38%30.01 "Hg10 mi
6:00 AM70 °FPassing clouds.3 mph40%30.01 "Hg5 mi
5:00 AM68 °FPassing clouds.2 mph43%30.01 "Hg5 mi
4:00 AM70 °FPassing clouds.3 mph43%30.01 "Hg5 mi
3:00 AM70 °FPassing clouds.3 mph46%30.01 "Hg5 mi
2:00 AM70 °FPassing clouds.5 mph46%30.01 "Hg5 mi
1:00 AM72 °FPassing clouds.2 mph44%30.01 "Hg5 mi
12:00 AM72 °FPassing clouds.3 mph47%30.01 "Hg5 mi
11:00 PM
Oct 25
73 °FPassing clouds.6 mph41%30.01 "Hg5 mi
11:00 PM73 °FPassing clouds.5 mph47%30.01 "Hg5 mi
10:00 PM73 °FPassing clouds.5 mph50%30.01 "Hg5 mi
9:00 PM75 °FPassing clouds.3 mph57%30.01 "Hg5 mi
8:00 PM75 °FPassing clouds.5 mph61%30.01 "Hg5 mi
7:00 PM75 °FPassing clouds.2 mph61%30.01 "Hg5 mi
6:00 PM77 °FPassing clouds.6 mph57%30.01 "HgN/A
5:00 PM79 °FPassing clouds.5 mph54%30.01 "Hg5 mi
4:00 PM81 °FPassing clouds.5 mph51%30.01 "Hg5 mi
3:00 PM81 °FPassing clouds.9 mph51%29.98 "Hg4 mi
2:00 PM82 °FPassing clouds.2 mph42%29.98 "Hg4 mi
1:00 PM81 °FPassing clouds.5 mph39%30.01 "Hg4 mi
12:00 PM79 °FPassing clouds.5 mph54%30.04 "Hg5 mi
11:00 AM77 °FSunny.5 mph54%30.04 "Hg3 mi
Weather by CustomWeather, © 2014

See weather overviewHow to use our weather pages